This demonstration page uses our WeatherBlox Daily Observations layout. Learn more.

Left ArrowRight Arrow

38.80484, -77.04692

Hourly Observations for September 9, 2021

Temp ( °F °C ) Dew Point ( °F °C ) Humidity (%) Winds ( mph kmh ) Pressure ( in mb ) Visibility ( mi km ) Precip ( " mm )
12:52 am 00:52 Cloudy 75 23.9 66 18.9 74 74 NNW 15 24 29.81 1009 10 16 N/A
12:57 am 00:57 Cloudy with Light Rain 74 23.3 66 18.9 76 76 NNW 18 30 29.80 1009 10 16 0.00 0.00
1:01 am 01:01 Cloudy with Light Rain 74 23.3 65 18.3 74 74 NNW 13 20 29.80 1009 10 16 0.00 0.00
1:19 am 01:19 Cloudy 72 22.2 65 18.3 79 79 N 9 15 29.79 1009 10 16 0.00 0.00
1:52 am 01:52 Cloudy with Light Rain 73 22.8 65 18.3 76 76 N 6 9 29.80 1009 10 16 0.00 0.00
2:52 am 02:52 Cloudy with Light Rain 72 22.2 66 18.9 82 82 ENE 6 9 29.80 1009 10 16 0.00 0.00
3:02 am 03:02 Cloudy with Light Rain 72 22.2 66 18.9 82 82 N 7 11 29.81 1009 10 16 0.00 0.00
3:14 am 03:14 Cloudy with Light Rain 72 22.2 66 18.9 82 82 N 5 7 29.80 1009 10 16 0.00 0.00
3:41 am 03:41 Cloudy with Heavy Rain 72 22.2 67 19.4 84 84 NW 12 19 29.82 1010 1 2 0.01 0.25
3:50 am 03:50 Cloudy with Nearby Thunderstorms 70 21 66 19 88 88 NNW 7 11 29.81 1009 3 5 0.23 5.84
3:52 am 03:52 Cloudy with Nearby Thunderstorms 70 21.1 67 19.4 90 90 NNW 8 13 29.80 1009 4 6 0.24 6.10
4:03 am 04:03 Cloudy with Light Rain 70 21.1 67 19.4 90 90 N 7 11 29.79 1009 4 6 0.01 0.25
4:43 am 04:43 Cloudy 70 21.1 66 18.9 87 87 NNW 7 11 29.79 1009 10 16 0.01 0.25
4:52 am 04:52 Cloudy 70 21.1 66 18.9 87 87 N 3 6 29.79 1009 10 16 0.01 0.25
5:32 am 05:32 Cloudy 70 21.1 66 18.9 87 87 N 3 6 29.79 1009 10 16 N/A
5:52 am 05:52 Cloudy 70 21.1 66 18.9 87 87 NNW 5 7 29.79 1009 10 16 N/A
5:55 am 05:55 Cloudy 70 21.1 66 18.9 87 87 NNW 6 9 29.79 1009 10 16 N/A
6:31 am 06:31 Cloudy with Light Rain 70 21.1 65 18.3 84 84 NNW 7 11 29.80 1009 10 16 0.00 0.00
6:52 am 06:52 Cloudy with Light Rain 70 21.1 66 18.9 87 87 NNW 8 13 29.80 1009 10 16 0.00 0.00
7:05 am 07:05 Cloudy 70 21.1 65 18.3 84 84 NW 8 13 29.81 1009 10 16 0.00 0.00
7:48 am 07:48 Cloudy with Light Rain 70 21 66 19 88 88 W 5 7 29.82 1010 10 16 0.00 0.00
7:52 am 07:52 Cloudy 70 21.1 66 18.9 87 87 WNW 5 7 29.82 1010 10 16 0.00 0.00
8:05 am 08:05 Cloudy 70 21.1 66 18.9 87 87 NNW 10 17 29.81 1009 10 16 N/A
8:52 am 08:52 Cloudy with Light Rain 70 21.1 66 18.9 87 87 N 8 13 29.82 1010 9 14 0.00 0.00
9:52 am 09:52 Cloudy 71 21.7 66 18.9 84 84 NW 9 15 29.82 1010 10 16 0.00 0.00
10:52 am 10:52 Cloudy 71 21.7 65 18.3 81 81 NNW 7 11 29.83 1010 10 16 N/A
11:52 am 11:52 Cloudy 73 22.8 65 18.3 76 76 NW 6 9 29.83 1010 10 16 N/A
12:52 pm 12:52 Cloudy 74 23.3 65 18.3 74 74 NNW 9 15 29.82 1010 10 16 N/A
1:52 pm 13:52 Cloudy 76 24.4 61 16.1 60 60 NNE 6 9 29.80 1009 10 16 N/A
2:52 pm 14:52 Cloudy 75 23.9 60 15.6 60 60 NNW 7 11 29.80 1009 10 16 N/A
3:52 pm 15:52 Cloudy 75 23.9 61 16.1 62 62 NW 9 15 29.79 1009 10 16 N/A
4:52 pm 16:52 Mostly Cloudy 78 25.6 62 16.7 58 58 VRB 3 6 29.79 1009 10 16 N/A
5:52 pm 17:52 Mostly Cloudy 79 26.1 61 16.1 54 54 NNW 5 7 29.80 1009 10 16 N/A
6:52 pm 18:52 Mostly Cloudy 76 24.4 59 15 56 56 N N/A 29.80 1009 10 16 N/A
7:52 pm 19:52 Mostly Cloudy 75 23.9 57 13.9 54 54 NW 5 7 29.81 1009 10 16 N/A
8:52 pm 20:52 Mostly Cloudy 73 22.8 54 12.2 51 51 NW 12 19 29.85 1011 10 16 N/A
9:52 pm 21:52 Partly Cloudy 70 21.1 56 13.3 61 61 NW 6 9 29.88 1012 7 11 N/A
10:52 pm 22:52 Mostly Cloudy 69 20.6 57 13.9 66 66 N N/A 29.87 1012 10 16 N/A
11:52 pm 23:52 Mostly Cloudy 69 20.6 54 12.2 59 59 NW 6 9 29.88 1012 10 16 N/A

Powered by AerisWeather